User: anonymous   Login
Location: Unspecified
(0.0000°N, 0.0000°E)
Time: 09:08:21
(UTC+00:00)
Language:

Aussat K2 - Orbit

View from above orbital plane
View from above orbital plane
View from above satellite
View from above satellite

Ground track
Ground track

The orbit data is extracted from the following two-line orbital elements,

1 16275U 85109C   15115.46177694  .00000086  00000-0  00000+0 0  9994
2 16275 014.8789 017.0498 0003697 186.8852 030.3277 00.99942499 97397
Epoch (UTC): 25 April 2015 11:04:57
Eccentricity: 0.0003697
inclination: 14.8789°
perigee height: 35863 km
apogee height: 35894 km
right ascension of ascending node: 17.0498°
argument of perigee: 186.8852°
revolutions per day: 0.99942499
mean anomaly at epoch: 30.3277°
orbit number at epoch: 9739

The dashed part of the orbit path shows where the satellite is in the earth's shadow,  

DLR